Regional Weather Roundup
Issued by NWS Midland/Odessa, TX

Home | Current Version | Previous Version | Text Only | Print | Product List | Glossary On
Versions: 1 2 3 4 5 6 7 8 9 10 11 12 13 14 15 16 17 18 19 20 21 22 23 24 25 26 27 28 29 30 31 32 33 34 35 36 37 38 39 40 41 42 43 44 45 46 47 48 49 50
389
ASUS44 KMAF 280810
RWRMAF
MIDLAND AREA WEATHER ROUNDUP
NATIONAL WEATHER SERVICE MIDLAND TX
300 AM CDT SAT MAY 28 2016

...IN SOUTHWEST TEXAS AND SOUTHEAST NEW MEXICO...

CITY           SKY/WX    TMP DP  RH WIND       PRES   REMARKS
ALPINE         CLEAR     53  20  27 S8        30.04S
ANDREWS        FAIR      68  23  18 W8        29.87S
ARTESIA        CLEAR     64  21  19 W13       29.88S
BIG SPRING     CLEAR     60  34  37 SE6       29.86S
CARLSBAD       CLEAR     69  16  13 W12       29.85F
DRYDEN           N/A     71  34  25 N7        29.84R
FORT STOCKTON  PTCLDY    66  18  15 SW9       29.89S
GUAD PASS      NOT AVBL
HOBBS          CLEAR     59  19  21 W7        29.90S
MARFA          CLEAR     46  17  31 N9        30.02S
MIDLAND AIRPK  CLEAR     69  16  13 W6        29.86S
MIDLAND INTL   CLEAR     66  17  15 W8        29.86R
ODESSA         CLEAR     68  15  13 W7        29.87S
PECOS          CLEAR     55  18  23 W6        29.86F
PRESIDIO       FAIR      70  13  11 CALM      29.88S
SEMINOLE       CLEAR     61  28  28 W10       29.88S
SNYDER           N/A     63  62  98 S7        29.84R
WINK           CLEAR     61  20  20 VRB3      29.85S
$$
...OTHER STATIONS IN TEXAS...

CITY           SKY/WX    TMP DP  RH WIND       PRES   REMARKS
ABILENE        CLEAR     65  63  93 S7        29.82S
AMARILLO       CLEAR     51  42  71 N6        29.93R
AUSTIN         DRZL/FOG  66  66 100 S10       29.84S VSB 1/8
BROWNSVILLE    PTCLDY    80  78  94 SE9       29.78S
CORPUS CHRISTI PTCLDY    81  75  82 SE15      29.80F
DALLAS FTW     CLOUDY    68  64  87 SE12      29.82S
DEL RIO        CLEAR     69  67  93 CALM      29.81R
EL PASO        CLEAR     62  19  19 SE6       29.92S
HOUSTON INT    MOCLDY    64  64 100 CALM      29.86F
LUBBOCK        PTCLDY    61  40  45 NE15      29.89R
SAN ANGELO     CLEAR     65  63  93 SW6       29.84R
SAN ANTONIO    CLOUDY    71  67  87 VRB5      29.84S
WACO           CLOUDY    66  64  93 SE8       29.84R FOG
WICHITA FALLS  NOT AVBL
$$
...OTHER LOCATIONS IN NEW MEXICO...

CITY           SKY/WX    TMP DP  RH WIND       PRES   REMARKS
ALAMAGORDO     CLEAR     59  19  21 S6        29.94S
ALBUQUERQUE    PTCLDY    57  24  28 S5        30.00R
CANNON AFB     MOCLDY    53  41  63 N7        29.94R
CLOVIS         CLEAR     52  39  62 E6        29.93R
HOLLOMAN AFB   CLEAR     63  19  18 SE8       29.92R
ROSWELL        CLEAR     66  28  24 N12       29.90S
RUIDOSO          N/A     54  19  26 SW9       30.10S
SANTA FE       CLEAR     45  30  55 N8        30.04S
TRUTH OR CONSE CLEAR     63  23  21 NW7       29.97S
TUCUMCARI      CLEAR     49  41  74 N9        29.94R
$$




USA.gov is the U.S. government's official web portal to all federal, state and local government web resources and services.